Location: Aranbee
(34.0885°N, 118.2342°W)
Time: 05:02:05
(UTC+00:00)

Courier 1B - Pass Details

Date: 01 December 2020
Orbit: 962 x 1209 km, 28.3° (Epoch: 17 January)

Event Time Altitude Azimuth Distance (km) Brightness Sun altitude
Rises 02:48:08 0° 206° (SSW) 3,624 11.0 -25.3°
Reaches altitude 10° 02:52:02 10° 183° (S) 2,691 9.9 -26.1°
Enters shadow 02:54:59 15° 156° (SSE) 2,381 9.4 -26.7°
